星链-1530 (STARLINK-1530 )

导读 | 豆包AI

STARLINK-1530是美国太空探索技术公司(SpaceX)星链计划中的一颗卫星,于2020年8月7日发射升空,属于星链星座的组网卫星,旨在为全球提供高速低延迟互联网服务,该卫星运行在近地轨道,是星链大规模星座部署中的一员,推动了全球卫星互联网网络的构建进程。

Basic Information
目录编号:
46049
目录名称:
STARLINK-1530
国际标识:
2020-055Y
轨道中心:
EARTH
卫星名称:
星链-1530
卫星全名:
星链-1530 (STARLINK-1530 )
卫星状态:
已陨落 最后检测时间 2024-06-23
发射日期:
2020-08-07 UTC
国别 :
美国 (US)
星等 :
--
Orbit Information
数据来源 国际轨道数据
星历时间: 2024-06-23T08:53:13+0800
轨道信息已过期629天
半长轴: 6559.65km
偏心率: 0.001398
轨道倾角: 53.039°
近地点辐角 288.443°
升交点赤经 18.140°
平近点角 156.955°
近地点: 172.344km
远地点: 190.686km
周期: 88.121分钟
每日圈数: 16.341118
Detailed Information
固有亮度:
5
最大亮度:
2.5
卫星平台:
Starlink V1.0
覆盖范围:
全球
运营商:
太空探索技术公司
运营商所在国:
美国
制造商(研发单位):
太空探索技术公司
制造商所在国:
美国
使用方式:
暂无
Satellite Introduction
星链(Starlink)计划是由太空探索技术公司(SpaceX)提出的一个巨型低轨卫星互联网星座项目,计划在2019年至2024年间在太空搭建由约1.2万颗卫星组成的“星链”网络,其中1584颗将部署在地球上空550千米处的近地轨道,并从2020年开始工作。该卫星已陨落。